Torna al catalogo

SCOUT G-1 DEB

AttivoPO
NORAD 44571·DEBRIS·🇺🇸 United States

Lanciato Aug 3, 1985 da Vandenberg Space Force Base

Loading…

Prossimi Passaggi (prossime 24 ore)

TLE

AggiornatoSource: Space-Track

Epoca: Sep 11, 2026, 07:23 UTC

1 44571U 85066K   26254.30786636  .00000474  00000-0  76753-3 0  9990
2 44571  90.1573  90.2354 0151577 318.5049  40.4668 13.42774994670176

Traccia SCOUT G-1 DEB in tempo reale con AllMySat

Download on the App Store